| time (UTC) | temp C | wind direction | speed KPH | gust KPH | rain 1hr cm | rain 24hr cm | rain mn cm | humidity % | barometer mb |
| 20260507174928 | 22 | 163 | 1.6 | 3.2 | 0.00 | 0.00 | 0.00 | 39 | 1025.3 |
| 20260507172927 | 21 | 157 | 0.0 | 1.6 | 0.00 | 0.00 | 0.00 | 41 | 1025.2 |
| 20260507171927 | 20 | 202 | 0.0 | 0.0 | 0.00 | 0.00 | 0.00 | 45 | 1025.3 |
| 20260507170942 | 21 | 180 | 0.0 | 4.8 | 0.00 | 0.00 | 0.00 | 47 | 1025.2 |
| 20260507165927 | 20 | 157 | 3.2 | 3.2 | 0.00 | 0.00 | 0.00 | 49 | 1025.2 |
| 20260507164927 | 20 | 157 | 0.0 | 1.6 | 0.00 | 0.00 | 0.00 | 50 | 1025.3 |
| 20260507163927 | 19 | 135 | 1.6 | 1.6 | 0.00 | 0.00 | 0.00 | 52 | 1025.3 |
| 20260507162928 | 18 | 135 | 1.6 | 3.2 | 0.00 | 0.00 | 0.00 | 54 | 1025.3 |
| 20260507161927 | 17 | 135 | 0.0 | 0.0 | 0.00 | 0.00 | 0.00 | 58 | 1025.3 |
| 20260507160926 | 16 | 157 | 0.0 | 0.0 | 0.00 | 0.00 | 0.00 | 59 | 1025.3 |
| 20260507155026 | 14 | 135 | 0.0 | 1.6 | 0.00 | 0.00 | 0.00 | 64 | 1025.2 |
| 20260507154028 | 13 | 45 | 0.0 | 0.0 | 0.00 | 0.00 | 0.00 | 64 | 1025.3 |
| 20260507153028 | 12 | 45 | 0.0 | 0.0 | 0.00 | 0.00 | 0.00 | 68 | 1025.0 |
| 20260507152044 | 12 | 45 | 0.0 | 0.0 | 0.00 | 0.00 | 0.00 | 69 | 1025.0 |
| 20260507151027 | 11 | 45 | 0.0 | 0.0 | 0.00 | 0.00 | 0.00 | 69 | 1025.0 |
| 20260507150030 | 10 | 45 | 0.0 | 0.0 | 0.00 | 0.00 | 0.00 | 74 | 1025.0 |
| 20260507145028 | 10 | 45 | 0.0 | 0.0 | 0.00 | 0.00 | 0.00 | 77 | 1024.9 |
| 20260507144035 | 9 | 45 | 0.0 | 0.0 | 0.00 | 0.00 | 0.00 | 77 | 1024.9 |
| 20260507143126 | 9 | 45 | 0.0 | 0.0 | 0.00 | 0.00 | 0.00 | 76 | 1024.9 |
| 20260507142128 | 8 | 45 | 0.0 | 0.0 | 0.00 | 0.00 | 0.00 | 76 | 1024.9 |
| 20260507141126 | 8 | 45 | 0.0 | 0.0 | 0.00 | 0.00 | 0.00 | 76 | 1024.8 |
| 20260507140130 | 8 | 45 | 0.0 | 0.0 | 0.00 | 0.00 | 0.00 | 76 | 1024.8 |
| 20260507135226 | 8 | 45 | 0.0 | 0.0 | 0.00 | 0.00 | 0.00 | 74 | 1024.7 |
| 20260507134226 | 8 | 45 | 0.0 | 0.0 | 0.00 | 0.00 | 0.00 | 73 | 1024.5 |
| 20260507133227 | 8 | 45 | 0.0 | 0.0 | 0.00 | 0.00 | 0.00 | 72 | 1024.4 |
| 20260507131227 | 8 | 45 | 0.0 | 0.0 | 0.00 | 0.00 | 0.00 | 72 | 1024.2 |
| 20260507131128 | 8 | 45 | 0.0 | 0.0 | 0.00 | 0.00 | 0.00 | 72 | 1024.1 |
| 20260507130127 | 8 | 45 | 0.0 | 0.0 | 0.00 | 0.00 | 0.00 | 72 | 1024.2 |
| 20260507125126 | 8 | 45 | 0.0 | 0.0 | 0.00 | 0.00 | 0.00 | 73 | 1024.2 |
| 20260507124226 | 8 | 45 | 0.0 | 0.0 | 0.00 | 0.00 | 0.00 | 73 | 1024.3 |
| 20260507122226 | 8 | 45 | 0.0 | 0.0 | 0.00 | 0.00 | 0.00 | 74 | 1024.1 |
| 20260507120229 | 8 | 45 | 0.0 | 0.0 | 0.00 | 0.00 | 0.00 | 72 | 1024.1 |
| 20260507115227 | 8 | 45 | 0.0 | 0.0 | 0.00 | 0.00 | 0.00 | 70 | 1024.0 |
| 20260507114229 | 8 | 45 | 0.0 | 0.0 | 0.00 | 0.00 | 0.00 | 69 | 1024.2 |
| 20260507113226 | 8 | 45 | 0.0 | 0.0 | 0.00 | 0.00 | 0.00 | 68 | 1024.2 |
| 20260507112228 | 8 | 45 | 0.0 | 0.0 | 0.00 | 0.00 | 0.00 | 67 | 1024.1 |
| 20260507111326 | 8 | 45 | 0.0 | 0.0 | 0.00 | 0.00 | 0.00 | 66 | 1024.1 |
| 20260507110329 | 8 | 45 | 0.0 | 0.0 | 0.00 | 0.00 | 0.00 | 68 | 1024.1 |
| 20260507105329 | 8 | 45 | 0.0 | 0.0 | 0.00 | 0.00 | 0.00 | 67 | 1024.2 |
| 20260507104330 | 8 | 45 | 0.0 | 0.0 | 0.00 | 0.00 | 0.00 | 67 | 1024.1 |
| 20260507103326 | 8 | 45 | 0.0 | 0.0 | 0.00 | 0.00 | 0.00 | 68 | 1024.3 |
| 20260507102343 | 8 | 45 | 0.0 | 0.0 | 0.00 | 0.00 | 0.00 | 67 | 1024.2 |
| 20260507101328 | 8 | 45 | 0.0 | 0.0 | 0.00 | 0.00 | 0.00 | 69 | 1024.3 |
| 20260507100328 | 8 | 45 | 0.0 | 0.0 | 0.00 | 0.00 | 0.00 | 70 | 1024.2 |
| 20260507095326 | 8 | 45 | 0.0 | 0.0 | 0.00 | 0.00 | 0.00 | 76 | 1024.3 |
| 20260507094426 | 8 | 45 | 0.0 | 0.0 | 0.00 | 0.00 | 0.00 | 75 | 1024.2 |
| 20260507093426 | 8 | 45 | 0.0 | 0.0 | 0.00 | 0.00 | 0.00 | 74 | 1024.2 |
| 20260507092427 | 8 | 45 | 0.0 | 0.0 | 0.00 | 0.00 | 0.00 | 77 | 1024.3 |
| 20260507091427 | 8 | 45 | 0.0 | 0.0 | 0.00 | 0.00 | 0.00 | 85 | 1024.4 |
| 20260507085428 | 8 | 45 | 0.0 | 0.0 | 0.00 | 0.00 | 0.00 | 92 | 1024.4 |
| 20260507084526 | 8 | 45 | 0.0 | 0.0 | 0.00 | 0.00 | 0.00 | 94 | 1024.5 |
| 20260507083626 | 8 | 45 | 0.0 | 0.0 | 0.00 | 0.00 | 0.00 | 94 | 1024.6 |
| 20260507081626 | 8 | 45 | 0.0 | 0.0 | 0.00 | 0.00 | 0.00 | 94 | 1024.7 |
| 20260507075726 | 9 | 45 | 0.0 | 0.0 | 0.00 | 0.00 | 0.00 | 94 | 1024.8 |
| 20260507074726 | 9 | 45 | 0.0 | 0.0 | 0.00 | 0.00 | 0.00 | 94 | 1024.7 |
| 20260507072728 | 9 | 45 | 0.0 | 0.0 | 0.00 | 0.00 | 0.00 | 94 | 1024.8 |
| 20260507071826 | 9 | 45 | 0.0 | 0.0 | 0.00 | 0.00 | 0.00 | 94 | 1024.8 |
| 20260507070828 | 9 | 45 | 0.0 | 0.0 | 0.00 | 0.00 | 0.00 | 94 | 1025.0 |
| 20260507065912 | 9 | 45 | 0.0 | 0.0 | 0.00 | 0.00 | 0.00 | 93 | 1025.0 |
| 20260507065011 | 9 | 45 | 0.0 | 0.0 | 0.00 | 0.00 | 0.00 | 93 | 1025.1 |
| 20260507064011 | 9 | 45 | 0.0 | 0.0 | 0.00 | 0.00 | 0.00 | 93 | 1025.1 |
| 20260507063012 | 10 | 45 | 0.0 | 0.0 | 0.00 | 0.00 | 0.00 | 93 | 1024.9 |
| 20260507062013 | 10 | 45 | 0.0 | 0.0 | 0.00 | 0.00 | 0.00 | 93 | 1024.9 |
| 20260507061111 | 10 | 45 | 0.0 | 0.0 | 0.00 | 0.00 | 0.00 | 93 | 1024.9 |
| 20260507060112 | 10 | 45 | 0.0 | 0.0 | 0.00 | 0.00 | 0.00 | 93 | 1024.7 |
| 20260507055210 | 10 | 45 | 0.0 | 0.0 | 0.00 | 0.00 | 0.00 | 93 | 1024.6 |
| 20260507054310 | 10 | 45 | 0.0 | 0.0 | 0.00 | 0.00 | 0.00 | 93 | 1024.6 |
| 20260507053312 | 10 | 45 | 0.0 | 0.0 | 0.00 | 0.00 | 0.00 | 93 | 1024.7 |
| 20260507052411 | 10 | 45 | 0.0 | 0.0 | 0.00 | 0.00 | 0.00 | 93 | 1024.6 |
| 20260507051411 | 11 | 45 | 0.0 | 0.0 | 0.00 | 0.00 | 0.00 | 93 | 1024.6 |
| 20260507050411 | 11 | 45 | 0.0 | 0.0 | 0.00 | 0.00 | 0.00 | 93 | 1024.7 |
| 20260507045412 | 11 | 45 | 0.0 | 0.0 | 0.00 | 0.00 | 0.00 | 92 | 1024.8 |
| 20260507044511 | 11 | 45 | 0.0 | 0.0 | 0.00 | 0.00 | 0.00 | 92 | 1024.7 |
| 20260507043511 | 11 | 45 | 0.0 | 0.0 | 0.00 | 0.00 | 0.00 | 92 | 1024.7 |
| 20260507042511 | 11 | 45 | 0.0 | 0.0 | 0.00 | 0.00 | 0.00 | 91 | 1024.6 |
| 20260507041511 | 11 | 45 | 0.0 | 0.0 | 0.00 | 0.00 | 0.00 | 91 | 1024.7 |
| 20260507040510 | 11 | 45 | 0.0 | 0.0 | 0.00 | 0.00 | 0.00 | 91 | 1024.6 |
| 20260507035513 | 11 | 45 | 0.0 | 0.0 | 0.00 | 0.00 | 0.00 | 90 | 1024.5 |
| 20260507032611 | 12 | 45 | 0.0 | 0.0 | 0.00 | 0.00 | 0.00 | 89 | 1024.2 |
| 20260507031610 | 12 | 45 | 0.0 | 0.0 | 0.00 | 0.00 | 0.00 | 88 | 1024.3 |
| 20260507025711 | 12 | 45 | 0.0 | 0.0 | 0.00 | 0.00 | 0.00 | 86 | 1024.2 |
| 20260507024810 | 13 | 45 | 0.0 | 0.0 | 0.00 | 0.00 | 0.00 | 86 | 1024.1 |
| 20260507021910 | 13 | 45 | 0.0 | 0.0 | 0.00 | 0.00 | 0.00 | 82 | 1023.9 |
| 20260507020912 | 14 | 45 | 0.0 | 0.0 | 0.00 | 0.00 | 0.00 | 82 | 1023.8 |
| 20260507015911 | 14 | 45 | 0.0 | 0.0 | 0.00 | 0.00 | 0.00 | 81 | 1023.8 |
| 20260507014910 | 15 | 45 | 0.0 | 0.0 | 0.00 | 0.00 | 0.00 | 80 | 1023.8 |
| 20260507013911 | 15 | 113 | 0.0 | 0.0 | 0.00 | 0.00 | 0.00 | 78 | 1023.8 |
| 20260507012910 | 15 | 135 | 0.0 | 0.0 | 0.00 | 0.00 | 0.00 | 77 | 1023.8 |
| 20260507011911 | 15 | 135 | 0.0 | 0.0 | 0.00 | 0.00 | 0.00 | 76 | 1023.7 |
| 20260507010912 | 15 | 135 | 0.0 | 0.0 | 0.00 | 0.00 | 0.00 | 75 | 1023.7 |
| 20260507010011 | 16 | 157 | 0.0 | 0.0 | 0.00 | 0.00 | 0.00 | 75 | 1023.7 |
| 20260507005013 | 16 | 157 | 0.0 | 0.0 | 0.00 | 0.00 | 0.00 | 73 | 1023.6 |
| 20260507003012 | 16 | 45 | 0.0 | 0.0 | 0.00 | 0.00 | 0.00 | 73 | 1023.6 |
| 20260507002912 | 16 | 46 | 0.0 | 4.8 | 0.00 | 0.00 | 0.00 | 73 | 1023.6 |
| 20260507001912 | 16 | 45 | 0.0 | 0.0 | 0.00 | 0.00 | 0.00 | 72 | 1023.7 |
| 20260507000913 | 16 | 66 | 0.0 | 4.8 | 0.00 | 0.00 | 0.00 | 72 | 1023.6 |
| 20260506235912 | 16 | 360 | 0.0 | 0.0 | 0.00 | 0.00 | 0.00 | 71 | 1023.6 |
| 20260506235010 | 16 | 180 | 0.0 | 0.0 | 0.00 | 0.00 | 0.00 | 71 | 1023.6 |
| 20260506234014 | 16 | 358 | 0.0 | 1.6 | 0.00 | 0.00 | 0.00 | 70 | 1023.6 |
| 20260506233011 | 17 | 176 | 1.6 | 3.2 | 0.00 | 0.00 | 0.00 | 69 | 1023.7 |
| 20260506232011 | 17 | 219 | 0.0 | 3.2 | 0.00 | 0.00 | 0.00 | 68 | 1023.7 |
| 20260506231011 | 17 | 208 | 0.0 | 3.2 | 0.00 | 0.00 | 0.00 | 68 | 1023.8 |
| 20260506230010 | 17 | 224 | 0.0 | 1.6 | 0.00 | 0.00 | 0.00 | 66 | 1023.6 |
| 20260506225010 | 18 | 232 | 0.0 | 0.0 | 0.00 | 0.00 | 0.00 | 65 | 1023.7 |
| 20260506224012 | 17 | 82 | 0.0 | 0.0 | 0.00 | 0.00 | 0.00 | 66 | 1023.8 |
| 20260506223012 | 17 | 135 | 0.0 | 1.6 | 0.00 | 0.00 | 0.00 | 65 | 1023.9 |
| 20260506221111 | 17 | 346 | 0.0 | 3.2 | 0.00 | 0.00 | 0.00 | 64 | 1023.8 |
| 20260506220210 | 17 | 142 | 0.0 | 3.2 | 0.00 | 0.00 | 0.00 | 65 | 1024.0 |
| 20260506215213 | 17 | 48 | 0.0 | 1.6 | 0.00 | 0.00 | 0.00 | 65 | 1024.1 |
| 20260506214212 | 17 | 132 | 0.0 | 1.6 | 0.00 | 0.00 | 0.00 | 63 | 1024.2 |
| 20260506213211 | 17 | 359 | 0.0 | 0.0 | 0.00 | 0.00 | 0.00 | 63 | 1024.3 |
| 20260506212211 | 17 | 337 | 0.0 | 0.0 | 0.00 | 0.00 | 0.00 | 64 | 1024.2 |
| 20260506211211 | 17 | 49 | 0.0 | 0.0 | 0.00 | 0.00 | 0.00 | 64 | 1024.2 |
| 20260506210212 | 18 | 189 | 0.0 | 0.0 | 0.00 | 0.00 | 0.00 | 62 | 1024.2 |
| 20260506205311 | 18 | 11 | 0.0 | 1.6 | 0.00 | 0.00 | 0.00 | 64 | 1024.2 |
| 20260506204410 | 18 | 112 | 0.0 | 0.0 | 0.00 | 0.00 | 0.00 | 63 | 1024.2 |
| 20260506202412 | 18 | 337 | 1.6 | 4.8 | 0.00 | 0.00 | 0.00 | 62 | 1024.1 |
| 20260506201411 | 18 | 268 | 0.0 | 0.0 | 0.00 | 0.00 | 0.00 | 63 | 1024.3 |
| 20260506200509 | 18 | 245 | 0.0 | 1.6 | 0.00 | 0.00 | 0.00 | 61 | 1024.2 |
| 20260506195512 | 18 | 180 | 0.0 | 1.6 | 0.00 | 0.00 | 0.00 | 64 | 1024.2 |
| 20260506194511 | 18 | 159 | 3.2 | 4.8 | 0.00 | 0.00 | 0.00 | 63 | 1024.1 |
| 20260506193511 | 18 | 292 | 0.0 | 1.6 | 0.00 | 0.00 | 0.00 | 62 | 1024.3 |
| 20260506192511 | 18 | 5 | 1.6 | 6.4 | 0.00 | 0.00 | 0.00 | 63 | 1024.2 |
| 20260506191510 | 18 | 175 | 0.0 | 1.6 | 0.00 | 0.00 | 0.00 | 63 | 1024.2 |
| 20260506190511 | 18 | 202 | 0.0 | 1.6 | 0.00 | 0.00 | 0.00 | 64 | 1024.3 |
| 20260506185511 | 18 | 293 | 0.0 | 1.6 | 0.00 | 0.00 | 0.00 | 66 | 1024.2 |
| 20260506184527 | 18 | 292 | 0.0 | 1.6 | 0.00 | 0.00 | 0.00 | 63 | 1024.2 |
| 20260506183611 | 18 | 176 | 1.6 | 4.8 | 0.00 | 0.00 | 0.00 | 63 | 1024.0 |
| 20260506182612 | 19 | 118 | 0.0 | 4.8 | 0.00 | 0.00 | 0.00 | 62 | 1023.9 |
| 20260506181612 | 19 | 157 | 0.0 | 1.6 | 0.00 | 0.00 | 0.00 | 59 | 1023.8 |
| 20260506180611 | 20 | 164 | 1.6 | 4.8 | 0.00 | 0.00 | 0.00 | 61 | 1023.8 |
| 20260506175611 | 19 | 130 | 1.6 | 3.2 | 0.00 | 0.00 | 0.00 | 62 | 1023.6 |